www.pogodaiklimat.ru

Погода и климат >> Архив погоды >> Антарктида >> Вернадский


ПОГОДА на Вернадский

  • Прогноз погоды на Вернадский
  • Монитор погоды на Вернадский

АРХИВ ПОГОДЫ на Вернадский

Время (UTC), дата Ветер
(напр.,м/с)
 
Видим.   Явления Облачность Т
(С)
Тd
(С)
f
(%)
Тe
(С)
Тes
(С)
Комфортность P
(гПа)
Po
(гПа)
Тmin
(С)
Tmax
(С)
R
(мм)
R24
(мм)
S
(см)
12 15.04 С 3 10 км 10/10 600 м
[Sc]
+0.9 -6.5 58 -3 -3 974.4 973.3 -1.9 +1.0
15 15.04 С 4 10 км 10/10 600 м
[Sc]
+0.7 -4.0 71 -4 -4 973.9 972.8
18 15.04 С 4 4000 м снежные зёрна 10/10 300 м
[St]
+0.2 -2.8 80 -5 -5 974.7 973.6
21 15.04 СВ 1 2000 м слаб. снег 10/10 300 м
[Frnb Ns]
-1.1 -2.1 93 -3 -3 976.7 975.6
00 16.04 штиль 0 11 км {снег} 6/0
[As trans Cs]
-1.6 -2.0 97 -3 -3 976.6 975.5 -1.7 +1.2
03 16.04 штиль 0 8000 м дымка 5/0
[Ac trans Ci fib]
-1.8 -2.3 96 -3 -3 976.2 975.1
06 16.04 штиль 0 20 км ясно -2.3 -6.1 75 -3 -3 975.6 974.5
12 16.04 В 1 50 км 6/0
[Ac und]
-3.2 -7.2 74 -5 -5 974.2 973.1 -3.3 -1.6
15 16.04 В 1 50 км 9/0
[Cs]
-2.3 -7.2 69 -4 -3 973.9 972.8
18 16.04 штиль 0 50 км 8/0
[Cs]
-2.0 -6.9 69 -3 -2 973.7 972.6
21 16.04 штиль 0 50 км 3/0
[Cs]
-3.0 -7.5 71 -4 -4 973.8 972.7
00 17.04 В 1 50 км ясно -3.4 -7.0 76 -4 -4 974.4 973.3 -4.2 -1.6
03 17.04 В 2 50 км ясно -4.1 -9.5 66 -7 -7 974.7 973.6
06 17.04 В 2 50 км ясно -4.7 -9.7 68 -8 -8 974.9 973.8
12 17.04 В 1 50 км 8/0
[As trans Cs]
-4.0 -8.6 70 -6 -6 976.0 974.9 -5.7 -3.5
15 17.04 В 1 20 км 9/0
[As trans Cs]
-3.5 -9.1 65 -5 -5 976.5 975.4
18 17.04 В 2 20 км 9/0
[Ac As Cs]
-3.2 -11.4 53 -6 -6 976.9 975.8
21 17.04 В 1 20 км 8/0
[Ac trans Cs]
-4.1 -8.7 70 -5 -5 977.7 976.6
00 18.04 ЮВ 2 20 км 9/0
[Ac As]
-4.1 -12.0 54 -8 -8 978.4 977.3 -4.5 -2.5
03 18.04 ЮВ 1 20 км 10/0
[Ac As]
-3.4 -10.5 58 -4 -4 979.3 978.2
06 18.04 ЮВ 4 20 км 9/0
[Ac As Cs]
-3.3 -13.6 45 -8 -8 980.3 979.2
12 18.04 Ю 3 20 км 8/0
[Ac lent Cs]
-2.9 -11.4 52 -8 -8 982.5 981.4 -4.1 -2.5
15 18.04 Ю 2 50 км 3/0
[Ci fib]
-3.1 -10.0 59 -7 -6 982.7 981.6
18 18.04 Ю 2 50 км 1/1 600 м
[Sc]
-3.3 -9.4 63 -7 -6 983.0 981.9
21 18.04 Ю 3 50 км 3/3 600 м
[Sc]
-3.7 -9.5 64 -8 -8 983.6 982.5
00 19.04 Ю 1 20 км 10/10 1000 м
[Sc]
-3.8 -9.4 65 -6 -6 984.0 982.9 -4.5 -2.8
03 19.04 штиль 0 20 км 10/10 1000 м
[Sc]
-4.0 -8.6 70 -5 -5 984.2 983.1
06 19.04 ЮВ 2 20 км 10/10 600 м
[Sc]
-4.1 -9.7 65 -8 -8 985.7 984.5
12 19.04 штиль 0 20 км 10/10 600 м
[Sc]
-4.2 -9.6 66 -5 -5 985.2 984.0 -4.4 -3.7
15 19.04 СВ 3 20 км 10/10 600 м
[Sc]
-4.2 -9.2 68 -9 -9 983.1 982.0
18 19.04 Ю 1 4000 м слаб. снег 10/10 300 м
[Frnb Ns]
-4.2 -8.0 75 -5 -5 979.2 978.1
21 19.04 штиль 0 20 км в посл. час снег 10/10 300 м
[St]
-4.8 -8.4 76 -6 -6 979.9 978.8
00 20.04 штиль 0 20 км {снег} 3/0
[Ci fib]
-5.1 -6.9 87 -6 -6 979.9 978.8 -5.3 -3.4
03 20.04 Ю 1 20 км 3/0
[Ac trans]
-5.1 -7.3 85 -8 -8 981.7 980.5
06 20.04 СВ 1 20 км ясно -4.8 -7.8 79 -7 -7 983.9 982.7
12 20.04 СВ 1 20 км 9/9 1000 м
[Sc]
-2.9 -9.0 63 -5 -5 988.2 987.1 -6.3 -2.9
15 20.04 ЮВ 1 20 км 10/10 1000 м
[Sc]
-3.4 -9.6 62 -5 -5 989.8 988.6
18 20.04 В 2 20 км 10/10 600 м
[Sc]
-3.7 -8.9 67 -7 -7 991.6 990.4
21 20.04 ЮВ 1 20 км 9/9 600 м
[Sc]
-3.9 -9.5 65 -4 -4 992.8 991.6
00 21.04 Ю 1 20 км 9/5 1000 м
[Sc Ac trans]
-4.3 -9.0 70 -5 -5 994.6 993.4 -4.5 -2.9
03 21.04 В 1 20 км 10/10 1000 м
[Sc]
-4.5 -9.4 69 -5 -5 995.6 994.4
06 21.04 Ю 1 20 км 9/9 600 м
[Sc]
-4.9 -9.2 72 -5 -5 996.9 995.7
12 21.04 В 1 20 км 8/4 600 м
[Sc Ac trans]
-5.6 -9.3 75 -8 -8 999.4 998.2 -6.0 -4.4
15 21.04 штиль 0 20 км 4/3 600 м
[Sc Ac trans]
-5.2 -9.6 71 -6 -5 1000.7 999.5
18 21.04 В 1 20 км 8/6 600 м
[Sc Ci fib]
-5.2 -9.4 72 -6 -5 1002.0 1000.8
21 21.04 ЮВ 1 20 км 6/4 600 м
[Sc Ac trans]
-5.7 -9.6 74 -6 -6 1002.1 1000.9
00 22.04 СВ 1 20 км 8/0
[Ac As Cs]
-5.5 -9.0 76 -6 -6 1002.5 1001.3 -6.2 -4.5
03 22.04 штиль 0 20 км 8/5 600 м
[Sc Ac und]
-5.1 -9.2 73 -6 -6 1001.9 1000.7

 

Местоположение метеостанции Вернадский (Антарктида): широта -65.25 долгота -64.27 высота над уровнем моря 11 м.

В архиве по умолчанию представлена погода на Вернадский за последнюю неделю. Архивные данные за месяц целиком и за предыдущие месяцы, начиная с января 2011 года, Вы можете получить, выбрав интересующий диапазон дат из раскрывающегося списка и нажав кнопку "Ввод!".


*Определитесь, кто Вы:
робот инопланетянин человек

Внимание! Время в таблицах - всемирное. Для получения местного времени необходимо прибавить поправку, которая равна 0 ч.

Смотрите также архив погоды в соседних городах и на ближайших метеорологических станциях:

Погода на Палмер (Антарктида) (55 км)
Погода на Леднике Ларсена (Антарктида) (231 км)
Погода на Габриэль де Кастилья (Антарктида) (307 км)
Погода на Rothera (Антарктида) (309 км)
Погода на San Martin Base (Антарктида) (342 км)
Погода на Острове Хуана Карлоса (Антарктида) (345 км)
Погода на Бернардо О`Хиггинс (Антарктида) (375 км)
Погода на Марамбио (Антарктида) (376 км)
Погода на Captain Arturo Prat Base (Антарктида) (379 км)
Погода на Эсперансе (Антарктида) (407 км)

Пояснения к столбцам:

Ветер - указаны скорость ветра в м/с - средняя за 10 мин, порывы в срок и между сроками (в фигурных скобках) и направление, откуда дует ветер: С - северный, СВ - северо-восточный, В - восточный, ЮВ - юго-восточный, Ю - южный, ЮЗ - юго-западный, З - западный, СЗ - северо-западный.
Видимость - горизонтальная дальность видимости в метрах или километрах. При видимости от 1 до 10 км при отсутствии осадков обычно наблюдается дымка, при ухудшении видимости до 1 км и менее - туман. В сухую погоду видимость может ухудшаться дымом, пылью или мглою.
Явления - указаны атмосферные явления, наблюдавшиеся в срок или в последний час перед сроком; фигурными скобками обозначены явления, наблюдавшиеся между сроками (за 1-3 часа до срока); квадратными скобками обозначены град или гололедные отложения с указанием их диаметра в мм.
Облачность - указаны через наклонную черту общая и нижняя облачность в баллах и высота нижней границы облаков в метрах; квадратными скобками обозначены формы облаков: Ci - перистые, Cs - перисто-слоистые, Cc - перисто-кучевые, Ac - высококучевые, As - высокослоистые, Sc - слоисто-кучевые, Ns - слоисто-дождевые, Cu - кучевые, Cb - кучево-дождевые. Подробнее классификацию облаков см. в Атласе облаков (PDF).
T - Температура воздуха - температура, измеренная на высоте 2 м над землей.
Td - Температура точки росы - температура, при понижении до которой содержащийся в воздухе водяной пар достигнет насыщения.
f - Относительная влажность воздуха - влажноcть воздуха, измеренная на высоте 2 м над землей.
Te - Эффективная температура - температура, которую ощущает одетый по сезону человек в тени. Характеристика душности погоды. При расчете учитывается влияние влажности воздуха и скорости ветра на теплоощущения человека.
Tes - Эффективная температура на солнце - температура, которую ощущает человек, с поправкой на солнечный нагрев. Характеристика знойности погоды. Зависит от высоты солнца над горизонтом, облачности и скорости ветра. Ночью, в пасмурную погоду, а также при ветре 12 м/с и более поправка равна нулю.
P - Атмосферное давление - приведенное к уровню моря атмосферное давление.
Po - Атмосферное давление - измеренное на уровне метеостанции атмосферное давление.
Tmin - Минимальная температура - минимум температуры воздуха на высоте 2 м над землей.
Tmax - Максимальная температура - максимум температуры воздуха на высоте 2 м над землей.
R - Количество осадков - Количество выпавших осадков за период времени, мм. При наведении курсора мыши на число - период времени, за который выпало указанное количество осадков.
R24 - Количество осадков - Количество выпавших осадков за 24 часа, мм.
S - Снежный покров - Высота снежного покрова, см. При наведении курсора мыши на число - состояние снежного покрова и степень покрытия местности в баллах.